Back to catalog

STARLINK-34363

AliveCommunicationsVLEO
NORAD 64497·PAYLOAD·🇺🇸 United States

Launched Jun 23, 2025 from Cape Canaveral Space Force Station

Loading…

Next Passes (next 24 hours)

TLE

FreshSource: CelesTrak SupGP

Epoch: Sep 14, 2026, 22:52 UTC

1 64497C 25133AB  26257.95326389  .00038796  00000+0  11466-2 0  2570
2 64497  53.1579 311.8284 0001147  89.9411  66.6557 15.34360400    16

Track STARLINK-34363 in real time with AllMySat

Download on the App Store